STARLINK-33874, 63825

Orbit data source: Space-Track

STARLINK-33874, 63825 is a payload satellite owned by SpaceX/Seattle (US) in LEO that was launched on Sun, 04 May 2025 UTC via an FALCON 9 launch vehicle from the Air Force Eastern Test Range (AFETR). Payload-class satellites include a variety of spacecraft equipped with specific instruments for various scientific and technological missions. These include communications satellites like Starlink; space stations such as the ISS; scientific satellites like the Hubble; Earth observation satellites from companies like Planet Labs, Umbra, and HawkEye 360; GPS; miniature CubeSats for education and research; and military/defense satellites.

Loading next visibility...
Identifier
63825, 2025-092X
Orbit
LEO
Country
Flag of USUS
Related business
Manufacturer
SpaceX/Seattle
Mission
Operational Commercial Communications
Bus & Motor
STARLINK V2MO, Unknown motor
Mass
575 kg wet, ~530 kg dry
Launch date (UTC)
2025-05-04 (7 months ago)
Launch vehicle
FALCON 9
Launch site
Air Force Eastern Test Range (AFETR)
Object type
Payload
Rocket body
Debris
Shape & HBR
Box + 2 Pan, 17.7 m
Radar Cross Section
36.964 m², Large (>1 m²)

Expand to show TLE details & history
Last TLE update: 1 day ago

TLE from 1 day ago
0 STARLINK-33874
1 63825U 25092X   25347.24722557  .00059913  00000-0  21652-2 0  9992
2 63825  43.0003 300.7893 0001414 271.7889  88.2801 15.27639553 35447
Epoch: 2025-12-13T05:56Z
TLE epoch observation values (Epoch: 2025-12-13T05:56:00.289Z)
Latitude
0.00001°
Longitude
129.61087°
Altitude
482.617 km
Speed
7.626 km/s
True Right ascension
20h 03m 09s
True Declination
0° 00' 00"
Sunlit
Object was in daylight at epoch
Visualization orbit readout
Latitude
Unknown
Longitude
Unknown
Altitude
Unknown
Speed
Unknown
Apparent Right ascension
Unknown
Apparent Declination
Unknown
Sunlit
N/A
Visualization observer readout
Local Sidereal Time
05:58:39
Azimuth
Unknown
Elevation
Unknown
Doppler factor
Unknown
Orbital elements
Apogee altitude
485.786 km
Perigee altitude
483.846 km
Semi-major axis
6,862.953 km
Eccentricity
0.00014
Inclination
43.0003°
RAAN
300.7893°
Arg. of periapsis
271.7889°
True anomaly
88.2963°
Mean anomaly
88.2801°
Eccentric anomaly
88.2882°
Mean motion
3.81748 °/min
Orbital period
94.3 mins
BSTAR
0.0021652
Loading maneuver chart data...
Computing Atmospheric mass density...
Loading historical data...
Loading historical data...
Loading historical data...
Loading historical data...
Loading historical data...
Loading historical data...
Loading historical data...

Documentation

Showing up to 5 results
|